Tracking 22879 objects as of 22-Apr-2021
HD Live streaming from Space Station
objects crossing your sky now

A-1 (ASTERIX)

Track A-1 (ASTERIX) now!
10-day predictions
A-1 (ASTERIX) is classified as:


NORAD ID: 1778
Int'l Code: 1965-096A
Perigee: 529.6 km
Apogee: 1,651.4 km
Inclination: 34.3 °
Period: 106.9 minutes
Semi major axis: 7461 km
RCS: 0.3783 m2 (medium)
Launch date: November 26, 1965
Source: France (FR)
Launch site: HAMMA GUIRA SPACE TRACK RANGE (HGSTR)
aabbcc
Your satellite tracking list
Your tracking list is empty




NASA's NSSDC Master Catalog

Two Line Element Set (TLE):
1 01778U 65096A   21111.60586817  .00000085  00000-0  18949-4 0  9994
2 01778  34.2620 321.0233 0751724 250.3421 101.4640 13.46998905710625
Source of the keplerian elements: AFSPC